VANAF 15-08-2015 LEVERT WEERSTATION LUYKSGESTEL OOK ACTUELE DATA AAN HETWEERACTUEEL
Het weer levert geen direct gevaar op.    Er zijn geen waarschuwingen afgegeven.


Onweer radar Meer informatie blitzortung!


Regen radar Meer informatie rain snow radar


Bekijk deze sites ook eens:

FPL Automotive (TIP)

Autostekkers.nl (TIP)

Over Luyksgestel

BOL.com

Weerstation Noordbergum

Inktweb

Drone kopen?

Weerstation Hapert

Parfumswinkel TIP

Weerstation Hoogeloon

Dronepilots Droneforum

Beleef de Lente

Weerstation Son&Breugel

Weerstation Castaert

Kamera Express

Smartphonehoesjes

Weerstation Tilburg Reeshof

Weerstation Scheulder

Samostour webcams

Weerverwachting Samos

Samos actueel

Weerwoord (forum)

Griekenlandforum

Vakantie naar Samos

Benelux-weerman

Zomerzon

Lampen koopjeshoek



Weather Underground Historische gegevens

Dagelijkse Samenvatting augustus 20, 2018 Eenheden:  Metrisch    Engels   Beide
« Vorige Dag
Volgende Dag »
Dagelijkse Wekelijkse Maandelijkse Jaarlijkse Aangepaste
  Huidig: Hoog: Laag: Gemiddeld:
Temperatuur: -6.9 °C -17.8 °C -7.6 °C -7.3 °C
Dauwpunt: -7.8 °C -17.8 °C -9 °C -8.6 °C
Vochtigheid: 91 % Humidity % 80 % 86 %
Wind snelheid: 7.6 km/h 0 km/h 0 km/h 8.2 km/h
Windvlaag: 15.6 km/h 0 km/h - -
Wind:SSW - - SSW
Luchtdruk: 34462.7 hPa 0 hPa 34418.7 hPa -
Neerslag: 0 mm      
Historical Graphs
 
 
Tabel voor augustus 20, 2018
Tijd Temperatuur Dauwpunt Luchtdruk Wind Wind snelheid Windvlaag Vochtigheid Regenval per uur
-17.8 °C -17.8 °C 0 hPa Calm     Humidity % 0 mm
00:03 -6.5 °C -8.3 °C 34442.4 hPa Calm   5.1 km/h 82 % 0 mm
00:08 -6.5 °C -8.3 °C 34442.4 hPa SSW 2.3 km/h 10.3 km/h 82 % 0 mm
00:13 -6.5 °C -8.3 °C 34442.4 hPa SW 2.3 km/h 10.3 km/h 82 % 0 mm
00:18 -6.6 °C -8.3 °C 34442.4 hPa WSW 10.3 km/h 12.9 km/h 82 % 0 mm
00:23 -6.6 °C -8.3 °C 34442.4 hPa SSW 15.6 km/h 18.2 km/h 82 % 0 mm
00:28 -6.6 °C -8.4 °C 34442.4 hPa SW 12.7 km/h 15.6 km/h 81 % 0 mm
00:33 -6.6 °C -8.5 °C 34442.4 hPa SW 7.6 km/h 12.9 km/h 81 % 0 mm
00:38 -6.7 °C -8.7 °C 34442.4 hPa West 10.3 km/h 20.8 km/h 80 % 0 mm
00:43 -6.7 °C -8.7 °C 34452.6 hPa South 12.7 km/h 12.9 km/h 80 % 0 mm
00:48 -6.8 °C -8.8 °C 34452.6 hPa WSW 7.6 km/h 18.2 km/h 80 % 0 mm
00:53 -6.8 °C -8.8 °C 34452.6 hPa SW 12.7 km/h 18.2 km/h 80 % 0 mm
00:58 -6.8 °C -8.7 °C 34452.6 hPa SSW 10.3 km/h 23.3 km/h 81 % 0 mm
01:03 -6.9 °C -8.8 °C 34452.6 hPa WSW 15.6 km/h 18.2 km/h 81 % 0 mm
01:08 -6.9 °C -8.8 °C 34452.6 hPa WSW 7.6 km/h 18.2 km/h 81 % 0 mm
01:13 -7 °C -8.8 °C 34452.6 hPa WSW 2.3 km/h 10.3 km/h 81 % 0 mm
01:18 -7 °C -8.8 °C 34452.6 hPa Calm   10.3 km/h 81 % 0 mm
01:23 -7.1 °C -8.8 °C 34452.6 hPa SW 10.3 km/h 12.9 km/h 82 % 0 mm
01:28 -7.1 °C -8.8 °C 34452.6 hPa WSW 5.1 km/h 15.6 km/h 82 % 0 mm
01:33 -7.1 °C -8.8 °C 34452.6 hPa SW 10.3 km/h 15.6 km/h 82 % 0 mm
01:38 -7.1 °C -8.8 °C 34452.6 hPa SW 5.1 km/h 7.7 km/h 83 % 0 mm
01:43 -7.1 °C -8.8 °C 34452.6 hPa West 5.1 km/h 12.9 km/h 83 % 0 mm
01:48 -7.2 °C -8.8 °C 34452.6 hPa SW 15.6 km/h 15.6 km/h 83 % 0 mm
01:53 -7.2 °C -8.9 °C 34452.6 hPa SSW 10.3 km/h 12.9 km/h 83 % 0 mm
01:58 -7.3 °C -8.9 °C 34452.6 hPa SSW 5.1 km/h 10.3 km/h 83 % 0 mm
02:03 -7.3 °C -8.9 °C 34452.6 hPa SSW 12.7 km/h 12.9 km/h 84 % 0 mm
02:08 -7.4 °C -8.9 °C 34452.6 hPa SSW 7.6 km/h 12.9 km/h 84 % 0 mm
02:14 -7.4 °C -9 °C 34452.6 hPa SSW 5.1 km/h 5.1 km/h 84 % 0 mm
02:19 -7.6 °C -9 °C 34452.6 hPa SSW 2.3 km/h 7.7 km/h 85 % 0 mm
02:24 -7.6 °C -9 °C 34452.6 hPa ESE 5.1 km/h 12.9 km/h 85 % 0 mm
02:29 -7.6 °C -9 °C 34452.6 hPa WSW 2.3 km/h 12.9 km/h 85 % 0 mm
02:34 -7.6 °C -9 °C 34452.6 hPa South 5.1 km/h 7.7 km/h 85 % 0 mm
02:39 -7.6 °C -8.9 °C 34452.6 hPa South 7.6 km/h 10.3 km/h 86 % 0 mm
02:44 -7.6 °C -8.9 °C 34442.4 hPa South 2.3 km/h 5.1 km/h 86 % 0 mm
02:49 -7.6 °C -8.9 °C 34442.4 hPa South 5.1 km/h 12.9 km/h 86 % 0 mm
02:54 -7.6 °C -8.9 °C 34442.4 hPa South 10.3 km/h 12.9 km/h 86 % 0 mm
02:59 -7.6 °C -8.8 °C 34442.4 hPa SSW 7.6 km/h 12.9 km/h 87 % 0 mm
03:04 -7.6 °C -8.8 °C 34442.4 hPa Calm   5.1 km/h 87 % 0 mm
03:09 -7.6 °C -8.8 °C 34442.4 hPa Calm   12.9 km/h 87 % 0 mm
03:14 -7.6 °C -8.8 °C 34442.4 hPa SSW 5.1 km/h 12.9 km/h 87 % 0 mm
03:19 -7.5 °C -8.7 °C 34442.4 hPa South 15.6 km/h 15.6 km/h 87 % 0 mm
03:24 -7.5 °C -8.7 °C 34442.4 hPa South 5.1 km/h 12.9 km/h 87 % 0 mm
03:29 -7.5 °C -8.7 °C 34428.8 hPa SSW 12.7 km/h 18.2 km/h 87 % 0 mm
03:34 -7.5 °C -8.7 °C 34428.8 hPa SSW 12.7 km/h 15.6 km/h 87 % 0 mm
03:39 -7.4 °C -8.7 °C 34428.8 hPa SSW 5.1 km/h 12.9 km/h 87 % 0 mm
03:44 -7.5 °C -8.7 °C 34428.8 hPa SW 5.1 km/h 15.6 km/h 87 % 0 mm
03:50 -7.5 °C -8.7 °C 34428.8 hPa South 7.6 km/h 12.9 km/h 87 % 0 mm
03:55 -7.5 °C -8.7 °C 34428.8 hPa SSE 10.3 km/h 15.6 km/h 87 % 0 mm
04:00 -7.6 °C -8.7 °C 34428.8 hPa South 12.7 km/h 15.6 km/h 88 % 0 mm
04:05 -7.6 °C -8.7 °C 34428.8 hPa SSW 7.6 km/h 18.2 km/h 88 % 0 mm
04:10 -7.6 °C -8.7 °C 34428.8 hPa SW 15.6 km/h 20.8 km/h 88 % 0 mm
04:15 -7.6 °C -8.7 °C 34428.8 hPa South 10.3 km/h 20.8 km/h 88 % 0 mm
04:20 -7.5 °C -8.6 °C 34428.8 hPa South 10.3 km/h 15.6 km/h 88 % 0 mm
04:25 -7.6 °C -8.7 °C 34428.8 hPa SSE 10.3 km/h 18.2 km/h 88 % 0 mm
04:30 -7.5 °C -8.6 °C 34428.8 hPa SW 2.3 km/h 20.8 km/h 88 % 0 mm
04:35 -7.4 °C -8.6 °C 34428.8 hPa SW 2.3 km/h 10.3 km/h 88 % 0 mm
04:40 -7.4 °C -8.6 °C 34428.8 hPa SW 7.6 km/h 25.9 km/h 88 % 0 mm
04:45 -7.4 °C -8.6 °C 34428.8 hPa SW 10.3 km/h 20.8 km/h 88 % 0 mm
04:50 -7.4 °C -8.6 °C 34428.8 hPa WSW 10.3 km/h 15.6 km/h 88 % 0 mm
04:55 -7.4 °C -8.6 °C 34428.8 hPa SSW 12.7 km/h 18.2 km/h 88 % 0 mm
05:00 -7.4 °C -8.6 °C 34428.8 hPa SSW 12.7 km/h 18.2 km/h 88 % 0 mm
05:05 -7.4 °C -8.5 °C 34428.8 hPa SSW 12.7 km/h 18.2 km/h 88 % 0 mm
05:10 -7.4 °C -8.5 °C 34428.8 hPa SSW 12.7 km/h 20.8 km/h 88 % 0 mm
05:15 -7.4 °C -8.5 °C 34428.8 hPa Calm   12.9 km/h 88 % 0 mm
05:20 -7.4 °C -8.5 °C 34428.8 hPa SSW 10.3 km/h 18.2 km/h 88 % 0 mm
05:25 -7.4 °C -8.5 °C 34428.8 hPa SSW 15.6 km/h 18.2 km/h 88 % 0 mm
05:30 -7.4 °C -8.5 °C 34428.8 hPa SW 5.1 km/h 20.8 km/h 88 % 0 mm
05:35 -7.4 °C -8.5 °C 34428.8 hPa SW 15.6 km/h 18.2 km/h 88 % 0 mm
05:40 -7.4 °C -8.4 °C 34428.8 hPa SSW 12.7 km/h 15.6 km/h 89 % 0 mm
05:46 -7.4 °C -8.4 °C 34428.8 hPa WSW 5.1 km/h 12.9 km/h 89 % 0 mm
05:51 -7.3 °C -8.4 °C 34428.8 hPa SSW 7.6 km/h 15.6 km/h 89 % 0 mm
05:56 -7.3 °C -8.4 °C 34428.8 hPa SSW 5.1 km/h 10.3 km/h 89 % 0 mm
06:01 -7.4 °C -8.4 °C 34418.7 hPa SSW 5.1 km/h 12.9 km/h 89 % 0 mm
06:06 -7.4 °C -8.4 °C 34418.7 hPa SSW 2.3 km/h 12.9 km/h 89 % 0 mm
06:11 -7.4 °C -8.4 °C 34418.7 hPa SW 10.3 km/h 12.9 km/h 89 % 0 mm
06:16 -7.4 °C -8.4 °C 34428.8 hPa SW 5.1 km/h 12.9 km/h 89 % 0 mm
06:21 -7.4 °C -8.4 °C 34428.8 hPa SSW 5.1 km/h 12.9 km/h 89 % 0 mm
06:26 -7.4 °C -8.4 °C 34428.8 hPa SSW 10.3 km/h 18.2 km/h 89 % 0 mm
06:31 -7.3 °C -8.4 °C 34428.8 hPa SSW 15.6 km/h 15.6 km/h 89 % 0 mm
06:36 -7.3 °C -8.4 °C 34428.8 hPa SW 7.6 km/h 12.9 km/h 89 % 0 mm
06:41 -7.3 °C -8.4 °C 34428.8 hPa SW 5.1 km/h 12.9 km/h 89 % 0 mm
06:46 -7.3 °C -8.4 °C 34428.8 hPa SSW 10.3 km/h 12.9 km/h 89 % 0 mm
06:51 -7.3 °C -8.4 °C 34428.8 hPa SSW 5.1 km/h 23.3 km/h 89 % 0 mm
06:56 -7.3 °C -8.4 °C 34428.8 hPa SSW 7.6 km/h 18.2 km/h 89 % 0 mm
07:01 -7.3 °C -8.3 °C 34428.8 hPa SSW 15.6 km/h 20.8 km/h 90 % 0 mm
07:06 -7.3 °C -8.3 °C 34428.8 hPa SSW 12.7 km/h 20.8 km/h 90 % 0 mm
07:11 -7.3 °C -8.3 °C 34428.8 hPa SW 17.9 km/h 18.2 km/h 90 % 0 mm
07:16 -7.3 °C -8.3 °C 34428.8 hPa SW 12.7 km/h 18.2 km/h 90 % 0 mm
07:21 -7.3 °C -8.3 °C 34428.8 hPa SSW 12.7 km/h 18.2 km/h 90 % 0 mm
07:26 -7.3 °C -8.3 °C 34428.8 hPa SSW 15.6 km/h 18.2 km/h 90 % 0 mm
07:31 -7.3 °C -8.2 °C 34428.8 hPa SW 7.6 km/h 12.9 km/h 90 % 0 mm
07:36 -7.3 °C -8.2 °C 34428.8 hPa SW 17.9 km/h 23.3 km/h 90 % 0 mm
07:41 -7.3 °C -8.2 °C 34428.8 hPa SSW 7.6 km/h 15.6 km/h 90 % 0 mm
07:46 -7.3 °C -8.1 °C 34442.4 hPa SW 10.3 km/h 18.2 km/h 91 % 0 mm
07:51 -7.3 °C -8.1 °C 34442.4 hPa SSW 2.3 km/h 12.9 km/h 91 % 0 mm
07:56 -7.3 °C -8.1 °C 34442.4 hPa SSW 12.7 km/h 15.6 km/h 91 % 0 mm
08:01 -7.3 °C -8.1 °C 34452.6 hPa SW 5.1 km/h 20.8 km/h 91 % 0 mm
08:07 -7.3 °C -8.1 °C 34452.6 hPa SW 5.1 km/h 12.9 km/h 91 % 0 mm
08:12 -7.3 °C -8.1 °C 34452.6 hPa South 10.3 km/h 18.2 km/h 91 % 0 mm
08:17 -7.3 °C -8.1 °C 34452.6 hPa West 2.3 km/h 10.3 km/h 91 % 0 mm
08:22 -7.2 °C -8.1 °C 34452.6 hPa WSW 10.3 km/h 18.2 km/h 91 % 0 mm
08:27 -7.2 °C -8.1 °C 34452.6 hPa West 7.6 km/h 12.9 km/h 91 % 0 mm
08:32 -7.2 °C -8.1 °C 34452.6 hPa SSW 12.7 km/h 18.2 km/h 91 % 0 mm
08:37 -7.2 °C -8.1 °C 34452.6 hPa SW 2.3 km/h 12.9 km/h 91 % 0 mm
08:42 -7.2 °C -7.9 °C 34452.6 hPa SSW 5.1 km/h 12.9 km/h 92 % 0 mm
08:47 -7.2 °C -7.9 °C 34452.6 hPa South 2.3 km/h 12.9 km/h 92 % 0 mm
08:52 -7.2 °C -7.9 °C 34452.6 hPa SSW 10.3 km/h 12.9 km/h 92 % 0 mm
08:57 -7.1 °C -7.8 °C 34452.6 hPa SW 5.1 km/h 5.1 km/h 92 % 0 mm
09:02 -7.1 °C -7.8 °C 34452.6 hPa SW 10.3 km/h 12.9 km/h 92 % 0 mm
09:07 -7.1 °C -7.9 °C 34452.6 hPa South 7.6 km/h 15.6 km/h 91 % 0 mm
09:12 -7 °C -7.8 °C 34452.6 hPa SW 10.3 km/h 15.6 km/h 91 % 0 mm
09:17 -6.9 °C -7.8 °C 34462.7 hPa SSW 7.6 km/h 15.6 km/h 91 % 0 mm
Weerstation Luyksgestel
Gegevens verzameld door Weather Underground - 3 mb

Script ontwikkeld door  Jim McMurry - jmcmurry@mwt.net Aangepast voor de template door  Wim van der Kuil - Leuven-Template.eu

U vindt ons ook hier:

Het Weer Aktueel

UK Metoffice

European Weather Network

Weather Underground

AWEKAS